Powrót do katalogu

ISS

UNITY

AktywnyNaukaVLEO
NORAD 25575·PAYLOAD·🇺🇸 United States

Wystrzelony Dec 4, 1998 z Cape Canaveral Space Force Station

Loading…

Następne Przeloty (najbliższe 24 godziny)

TLE

ŚwieżeSource: Space-Track

Epoka: Sep 14, 2026, 08:04 UTC

1 25575U 98069F   26257.33674862  .00004921  00000-0  97059-4 0  9997
2 25575  51.6309 218.8707 0004933 140.1115 220.0237 15.49109585586344

Śledź ISS w czasie rzeczywistym z AllMySat

Download on the App Store